EW6205 Weather Reports


time (UTC)temp
F
wind
direction
speed
knots
gust
knots
rain 1hr
in
rain 24hr
in
rain mn
in
humidity
%
barometer
mb
20260504035205 58 309 4.3 11.3 0.00 0.00 0.00 44 1000.0
20260504034705 59 338 5.2 11.3 0.00 0.00 0.00 43 999.9
20260504034205 59 338 5.2 11.3 0.00 0.00 0.00 42 999.8
20260504033706 59 314 4.3 10.4 0.00 0.00 0.00 42 999.5
20260504033206 60 354 4.3 10.4 0.00 0.00 0.00 41 999.4
20260504032705 60 325 4.3 13.9 0.00 0.00 0.00 41 999.2
20260504032207 60 333 5.2 14.8 0.00 0.00 0.00 40 999.1
20260504030705 61 310 7.0 17.4 0.00 0.00 0.00 39 998.9
20260504030207 62 323 7.0 20.9 0.00 0.00 0.00 38 998.8
20260504025705 62 335 8.7 20.9 0.00 0.00 0.00 37 998.6
20260504025205 63 338 9.6 20.9 0.00 0.00 0.00 36 998.5
20260504024706 64 37 8.7 26.9 0.00 0.00 0.00 35 998.3
20260504024207 65 333 9.6 26.9 0.00 0.00 0.00 33 998.0
20260504023705 66 337 9.6 26.9 0.00 0.00 0.00 32 998.0
20260504023204 69 350 8.7 15.6 0.00 0.00 0.00 30 998.0
20260504022705 70 312 8.7 14.8 0.00 0.00 0.00 30 997.0
20260504022205 70 299 8.7 14.8 0.00 0.00 0.00 30 996.8
20260504021707 70 285 7.8 14.8 0.00 0.00 0.00 29 996.7
20260504021205 71 312 7.8 14.8 0.00 0.00 0.00 29 996.7
20260504020205 71 298 7.8 15.6 0.00 0.00 0.00 29 996.5
20260504015706 71 312 8.7 15.6 0.00 0.00 0.00 29 996.5
20260504015206 72 316 9.6 15.6 0.00 0.00 0.00 28 996.4
20260504014705 72 320 8.7 14.8 0.00 0.00 0.00 28 996.4
20260504013706 73 286 7.0 17.4 0.00 0.00 0.00 27 996.5
20260504013205 73 312 8.7 21.7 0.00 0.00 0.00 26 996.4
20260504012706 74 322 10.4 22.6 0.00 0.00 0.00 25 996.4
20260504012206 74 339 10.4 27.8 0.00 0.00 0.00 24 996.5
20260504011705 74 301 11.3 27.8 0.00 0.00 0.00 23 996.3
20260504011205 75 314 12.2 22.6 0.00 0.00 0.00 21 996.4
20260504010705 75 317 12.2 22.6 0.00 0.00 0.00 20 996.3
20260504010205 75 336 10.4 21.7 0.00 0.00 0.00 20 996.4
20260504005707 75 18 10.4 21.7 0.00 0.00 0.00 21 996.4
20260504005205 76 307 11.3 21.7 0.00 0.00 0.00 21 996.5
20260504003705 76 319 8.7 19.1 0.00 0.00 0.00 21 996.6
20260504003205 76 308 8.7 21.7 0.00 0.00 0.00 21 996.5
20260504002205 76 312 8.7 21.7 0.00 0.00 0.00 20 996.5
20260504001705 76 302 8.7 18.2 0.00 0.00 0.00 20 996.6
20260504001207 76 344 7.8 15.6 0.00 0.00 0.00 21 996.6
20260504000705 76 271 6.1 15.6 0.00 0.00 0.00 22 996.6
20260504000205 76 353 6.1 14.8 0.00 0.00 0.00 23 996.8
20260503235705 76 336 6.1 13.0 0.00 0.00 0.00 23 996.7
20260503235206 76 278 6.1 13.0 0.00 0.00 0.00 23 996.9
20260503234705 76 193 6.1 14.8 0.00 0.00 0.00 23 997.0
20260503234207 76 220 6.1 14.8 0.00 0.00 0.00 22 997.2
20260503232706 77 278 6.1 17.4 0.00 0.00 0.00 22 997.4
20260503232207 77 274 7.0 17.4 0.00 0.00 0.00 22 997.6
20260503231705 77 287 7.8 17.4 0.00 0.00 0.00 21 997.6
20260503231205 77 315 7.0 17.4 0.00 0.00 0.00 21 997.7
20260503230706 77 234 7.0 17.4 0.00 0.00 0.00 21 998.0
20260503230205 77 238 7.0 19.1 0.00 0.00 0.00 21 998.2
20260503225705 77 248 7.8 19.1 0.00 0.00 0.00 21 998.2
20260503224205 77 317 6.1 21.7 0.00 0.00 0.00 20 998.7
20260503223707 76 356 8.7 21.7 0.00 0.00 0.00 20 998.6
20260503223207 76 348 10.4 21.7 0.00 0.00 0.00 19 998.9
20260503222704 76 288 10.4 20.0 0.00 0.00 0.00 20 998.9
20260503222205 76 300 9.6 20.0 0.00 0.00 0.00 20 999.0
20260503221707 76 334 9.6 20.0 0.00 0.00 0.00 20 999.1
20260503221205 76 338 7.8 20.0 0.00 0.00 0.00 20 999.1
20260503215705 76 314 7.0 15.6 0.00 0.00 0.00 22 999.3
20260503214705 76 333 6.1 17.4 0.00 0.00 0.00 22 999.5
20260503214204 76 182 7.0 17.4 0.00 0.00 0.00 23 999.8
20260503213205 76 328 7.0 15.6 0.00 0.00 0.00 22 999.9
20260503212205 76 286 7.0 19.1 0.00 0.00 0.00 22 1000.3
20260503211705 76 289 6.1 19.1 0.00 0.00 0.00 22 1000.5
20260503210705 74 241 8.7 19.1 0.00 0.00 0.00 23 1000.7
20260503210207 74 341 7.8 13.9 0.00 0.00 0.00 22 1000.7
20260503205705 74 53 6.1 13.0 0.00 0.00 0.00 24 1000.9
20260503204205 74 191 6.1 17.4 0.00 0.00 0.00 25 1001.2
20260503203205 73 340 6.1 16.5 0.00 0.00 0.00 26 1001.4
20260503202705 73 277 6.1 16.5 0.00 0.00 0.00 25 1001.4
20260503202205 74 209 5.2 14.8 0.00 0.00 0.00 25 1001.6
20260503201705 74 211 4.3 14.8 0.00 0.00 0.00 25 1001.8
20260503200206 74 159 5.2 17.4 0.00 0.00 0.00 25 1002.2
20260503195705 74 287 7.0 17.4 0.00 0.00 0.00 25 1002.2
20260503195207 73 345 8.7 17.4 0.00 0.00 0.00 26 1002.4
20260503194705 74 18 7.8 19.1 0.00 0.00 0.00 26 1002.5
20260503194205 74 239 7.0 19.1 0.00 0.00 0.00 26 1002.6
20260503193705 74 255 6.1 19.1 0.00 0.00 0.00 26 1002.7
20260503192707 73 220 7.8 21.7 0.00 0.00 0.00 27 1003.0
20260503192205 73 285 8.7 18.2 0.00 0.00 0.00 26 1003.2
20260503191706 73 319 7.8 17.4 0.00 0.00 0.00 27 1003.3
20260503191205 73 354 8.7 20.0 0.00 0.00 0.00 27 1003.6
20260503190706 72 300 8.7 20.0 0.00 0.00 0.00 27 1003.8
20260503190204 73 290 7.8 20.0 0.00 0.00 0.00 28 1003.7
20260503185705 72 277 7.8 22.6 0.00 0.00 0.00 28 1003.7
20260503184705 72 308 7.8 22.6 0.00 0.00 0.00 27 1004.1
20260503184205 72 248 7.8 21.7 0.00 0.00 0.00 27 1004.2
20260503183705 72 301 7.0 21.7 0.00 0.00 0.00 28 1004.3
20260503183205 72 347 7.0 21.7 0.00 0.00 0.00 28 1004.4
20260503182706 72 293 7.0 17.4 0.00 0.00 0.00 28 1004.5
20260503182205 71 297 7.0 17.4 0.00 0.00 0.00 29 1004.5
20260503181705 71 264 7.8 20.9 0.00 0.00 0.00 30 1004.7
20260503181207 71 307 7.8 25.2 0.00 0.00 0.00 30 1005.0
20260503180205 70 304 12.2 20.0 0.00 0.00 0.00 29 1005.3
20260503175706 70 296 10.4 19.1 0.00 0.00 0.00 29 1005.4
20260503174207 70 283 9.6 21.7 0.00 0.00 0.00 29 1005.5
20260503173705 69 358 9.6 18.2 0.00 0.00 0.00 29 1005.6
20260503173206 70 282 7.0 18.2 0.00 0.00 0.00 28 1005.7
20260503172205 69 328 6.1 14.8 0.00 0.00 0.00 30 1005.8
20260503171707 69 264 6.1 14.8 0.00 0.00 0.00 31 1005.9
20260503171206 69 293 5.2 15.6 0.00 0.00 0.00 32 1006.0
20260503170705 69 220 5.2 17.4 0.00 0.00 0.00 32 1006.1
20260503170205 69 230 5.2 17.4 0.00 0.00 0.00 31 1006.2
20260503160205 65 324 5.2 16.5 0.00 0.00 0.00 34 1007.8
20260503150706 58 239 2.6 8.7 0.00 0.00 0.00 41 1008.5
20260503140205 49 213 0.9 4.3 0.00 0.00 0.00 54 1009.6
20260503130206 40 227 0.0 3.5 0.00 0.00 0.00 68 1009.9
20260503120205 38 136 0.9 3.5 0.00 0.00 0.00 72 1010.0
20260503110705 38 148 0.0 1.7 0.00 0.00 0.00 71 1010.6
20260503110204 38 165 0.0 1.7 0.00 0.00 0.00 71 1010.6
20260503081205 39 205 0.0 0.0 0.00 0.00 0.00 67 1011.4
20260503080705 39 205 0.0 0.0 0.00 0.00 0.00 68 1011.4
20260503080205 39 205 0.0 0.0 0.00 0.00 0.00 67 1011.6
20260503072705 41 216 0.0 0.0 0.00 0.00 0.00 64 1011.6
20260503072205 41 216 0.0 0.0 0.00 0.00 0.00 66 1011.6
20260503071705 41 216 0.0 0.0 0.00 0.00 0.00 68 1011.6
20260503071207 41 216 0.0 0.0 0.00 0.00 0.00 67 1011.6
20260503070705 41 217 0.0 0.0 0.00 0.00 0.00 68 1011.6
20260503054705 45 333 0.0 0.0 0.00 0.00 0.00 54 1011.7
20260503054206 46 333 0.0 0.0 0.00 0.00 0.00 52 1011.7
20260503053705 46 333 0.0 0.0 0.00 0.00 0.00 51 1011.7
20260503052705 46 333 0.0 0.0 0.00 0.00 0.00 50 1011.7
20260503052206 46 333 0.0 0.0 0.00 0.00 0.00 50 1011.7
20260503051705 47 333 0.0 0.0 0.00 0.00 0.00 49 1011.7
20260503051205 47 333 0.0 0.0 0.00 0.00 0.00 49 1011.8
20260503050705 47 333 0.0 0.0 0.00 0.00 0.00 50 1011.8
20260503050205 47 333 0.0 0.0 0.00 0.00 0.00 51 1011.7
20260503045205 48 333 0.0 0.0 0.00 0.00 0.00 47 1011.9
20260503044207 48 333 0.0 0.0 0.00 0.00 0.00 45 1011.9
20260503043705 49 333 0.0 0.0 0.00 0.00 0.00 45 1011.8
20260503042706 49 333 0.0 0.0 0.00 0.00 0.00 43 1011.8
20260503042205 49 333 0.0 0.0 0.00 0.00 0.00 43 1011.8
20260503041705 50 333 0.0 0.0 0.00 0.00 0.00 42 1011.8
20260503041205 50 333 0.0 0.0 0.00 0.00 0.00 42 1011.8
20260503040706 51 333 0.0 0.0 0.00 0.00 0.00 41 1011.8
20260503040204 51 333 0.0 0.0 0.00 0.00 0.00 41 1011.8
20260503035706 52 333 0.0 0.0 0.00 0.00 0.00 40 1011.9